GW2229 Weather Reports


time (UTC)temp
F
wind
direction
speed
knots
gust
knots
rain 1hr
in
rain 24hr
in
rain mn
in
humidity
%
barometer
mb
20260504050405 70 148 1.7 6.1 0.00 0.00 0.00 72 1017.8
20260504045905 70 143 2.6 5.2 0.00 0.00 0.00 72 1018.1
20260504045405 70 167 2.6 7.0 0.00 0.00 0.00 71 1018.1
20260504044405 70 133 1.7 4.3 0.00 0.00 0.00 71 1018.2
20260504043904 71 152 1.7 2.6 0.00 0.00 0.00 70 1018.3
20260504043405 71 142 3.5 7.0 0.00 0.00 0.00 70 1018.3
20260504042904 71 137 4.3 7.8 0.00 0.00 0.00 69 1018.3
20260504041404 71 143 2.6 6.1 0.00 0.00 0.00 70 1018.5
20260504040905 71 157 3.5 7.8 0.00 0.00 0.00 70 1018.4
20260504040405 71 146 4.3 8.7 0.00 0.00 0.00 70 1018.3
20260504035906 71 141 2.6 7.8 0.00 0.00 0.00 70 1018.3
20260504035404 71 139 4.3 8.7 0.00 0.00 0.00 70 1018.3
20260504034405 70 133 1.7 4.3 0.00 0.00 0.00 70 1018.2
20260504033904 70 156 3.5 7.8 0.00 0.00 0.00 71 1018.1
20260504033405 70 141 2.6 7.8 0.00 0.00 0.00 70 1018.2
20260504032405 70 151 2.6 7.0 0.00 0.00 0.00 70 1018.3
20260504031904 70 137 2.6 4.3 0.00 0.00 0.00 70 1018.2
20260504031405 70 150 1.7 7.0 0.00 0.00 0.00 70 1018.3
20260504030905 70 137 3.5 6.1 0.00 0.00 0.00 70 1018.1
20260504030404 70 128 1.7 4.3 0.00 0.00 0.00 69 1018.1
20260504025905 70 145 1.7 5.2 0.00 0.00 0.00 69 1018.2
20260504025405 70 139 2.6 6.1 0.00 0.00 0.00 69 1018.2
20260504024904 70 146 2.6 5.2 0.00 0.00 0.00 69 1018.3
20260504023905 70 142 2.6 5.2 0.00 0.00 0.00 69 1018.1
20260504023405 70 147 2.6 5.2 0.00 0.00 0.00 69 1018.2
20260504022904 70 137 1.7 6.1 0.00 0.00 0.00 69 1018.3
20260504022404 70 140 1.7 2.6 0.00 0.00 0.00 68 1018.2
20260504021905 70 144 1.7 4.3 0.00 0.00 0.00 68 1018.1
20260504021404 70 146 1.7 4.3 0.00 0.00 0.00 68 1018.0
20260504020904 70 137 1.7 4.3 0.00 0.00 0.00 68 1017.9
20260504020405 70 144 2.6 6.1 0.00 0.00 0.00 68 1017.8
20260504015924 71 136 2.6 5.2 0.00 0.00 0.00 68 1017.8
20260504015405 71 130 1.7 5.2 0.00 0.00 0.00 67 1017.6
20260504014904 71 148 2.6 6.1 0.00 0.00 0.00 67 1017.6
20260504014405 71 169 1.7 5.2 0.00 0.00 0.00 67 1017.6
20260504013905 71 146 2.6 4.3 0.00 0.00 0.00 66 1017.6
20260504013404 71 142 2.6 6.1 0.00 0.00 0.00 66 1017.7
20260504012905 71 136 1.7 4.3 0.00 0.00 0.00 66 1017.7
20260504012404 71 155 1.7 7.8 0.00 0.00 0.00 65 1017.6
20260504011904 71 132 4.3 10.4 0.00 0.00 0.00 65 1017.5
20260504011405 71 130 3.5 6.1 0.00 0.00 0.00 65 1017.5
20260504010904 72 141 3.5 7.0 0.00 0.00 0.00 65 1017.5
20260504010404 72 137 1.7 7.8 0.00 0.00 0.00 64 1017.7
20260504005905 72 144 1.7 5.2 0.00 0.00 0.00 65 1017.5
20260504005405 72 126 1.7 6.1 0.00 0.00 0.00 64 1017.6
20260504004904 73 139 1.7 7.0 0.00 0.00 0.00 64 1017.7
20260504004404 73 124 2.6 4.3 0.00 0.00 0.00 63 1017.7
20260504003904 73 135 3.5 6.1 0.00 0.00 0.00 63 1017.7
20260504003404 74 134 1.7 7.0 0.00 0.00 0.00 63 1017.8
20260504002903 74 145 2.6 5.2 0.00 0.00 0.00 62 1017.8
20260504002405 74 135 1.7 10.4 0.00 0.00 0.00 62 1017.8
20260504001404 74 148 2.6 6.1 0.00 0.00 0.00 61 1017.8
20260504000906 75 138 4.3 10.4 0.00 0.00 0.00 61 1017.8
20260504000404 75 123 2.6 8.7 0.00 0.00 0.00 62 1017.9
20260503235904 75 141 2.6 7.0 0.00 0.00 0.00 62 1017.8
20260503234908 76 123 4.3 8.7 0.00 0.00 0.00 60 1017.7
20260503233907 76 131 2.6 10.4 0.00 0.00 0.00 60 1017.8
20260503233407 76 106 4.3 10.4 0.00 0.00 0.00 58 1017.7
20260503232908 77 102 4.3 10.4 0.00 0.00 0.00 59 1017.9
20260503231407 77 132 2.6 8.7 0.00 0.00 0.00 57 1018.1
20260503230907 77 143 3.5 7.0 0.00 0.00 0.00 59 1018.1
20260503230408 77 111 4.3 8.7 0.00 0.00 0.00 59 1017.9
20260503225907 77 121 4.3 7.0 0.00 0.00 0.00 57 1017.9
20260503225407 77 124 5.2 10.4 0.00 0.00 0.00 58 1018.1
20260503224907 77 135 6.1 12.2 0.00 0.00 0.00 59 1018.2
20260503224407 77 145 4.3 8.7 0.00 0.00 0.00 59 1018.2
20260503223907 77 126 5.2 7.8 0.00 0.00 0.00 59 1018.3
20260503223407 77 128 5.2 10.4 0.00 0.00 0.00 58 1018.3
20260503222907 78 129 5.2 11.3 0.00 0.00 0.00 59 1018.2
20260503222407 78 121 4.3 10.4 0.00 0.00 0.00 58 1018.2
20260503221407 77 118 2.6 10.4 0.00 0.00 0.00 60 1018.3
20260503220907 77 103 4.3 10.4 0.00 0.00 0.00 59 1018.3
20260503220407 77 137 4.3 11.3 0.00 0.00 0.00 59 1018.5
20260503215907 77 101 3.5 7.8 0.00 0.00 0.00 58 1018.5
20260503214907 78 100 3.5 10.4 0.00 0.00 0.00 58 1018.7
20260503214407 78 101 4.3 10.4 0.00 0.00 0.00 57 1018.8
20260503213907 78 131 4.3 10.4 0.00 0.00 0.00 58 1019.0
20260503213407 78 148 2.6 7.0 0.00 0.00 0.00 57 1019.0
20260503212907 79 80 3.5 12.2 0.00 0.00 0.00 56 1019.0
20260503211907 79 128 3.5 7.8 0.00 0.00 0.00 56 1019.4
20260503211407 79 137 4.3 8.7 0.00 0.00 0.00 55 1019.4
20260503210907 79 107 5.2 10.4 0.00 0.00 0.00 55 1019.5
20260503210406 79 137 2.6 10.4 0.00 0.00 0.00 56 1019.4
20260503205907 79 126 2.6 7.8 0.00 0.00 0.00 56 1019.4
20260503205407 79 111 4.3 10.4 0.00 0.00 0.00 54 1019.5
20260503204907 79 115 4.3 10.4 0.00 0.00 0.00 54 1019.5
20260503204407 79 142 4.3 7.8 0.00 0.00 0.00 54 1019.7
20260503203407 78 146 4.3 10.4 0.00 0.00 0.00 56 1019.8
20260503202907 78 140 2.6 8.7 0.00 0.00 0.00 53 1019.9
20260503202407 79 143 5.2 10.4 0.00 0.00 0.00 53 1019.9
20260503201907 79 100 2.6 8.7 0.00 0.00 0.00 52 1020.0
20260503201407 79 139 4.3 10.4 0.00 0.00 0.00 52 1020.3
20260503200907 79 141 2.6 6.1 0.00 0.00 0.00 54 1020.4
20260503200407 79 111 4.3 10.4 0.00 0.00 0.00 54 1020.5
20260503195907 79 132 4.3 8.7 0.00 0.00 0.00 54 1020.4
20260503195407 79 96 5.2 10.4 0.00 0.00 0.00 54 1020.6
20260503194907 79 150 4.3 8.7 0.00 0.00 0.00 53 1020.9
20260503194407 79 153 4.3 7.8 0.00 0.00 0.00 52 1020.9
20260503193907 79 141 5.2 11.3 0.00 0.00 0.00 52 1020.9
20260503193407 79 142 4.3 12.2 0.00 0.00 0.00 52 1020.9
20260503192907 79 133 3.5 8.7 0.00 0.00 0.00 52 1020.8
20260503192407 79 132 7.0 11.3 0.00 0.00 0.00 51 1020.9
20260503191907 79 60 2.6 10.4 0.00 0.00 0.00 51 1021.0
20260503191407 80 131 5.2 8.7 0.00 0.00 0.00 51 1021.0
20260503190907 80 117 4.3 10.4 0.00 0.00 0.00 49 1021.1
20260503185907 80 51 4.3 10.4 0.00 0.00 0.00 49 1021.2
20260503185406 80 108 2.6 8.7 0.00 0.00 0.00 51 1021.3
20260503184906 79 113 2.6 7.8 0.00 0.00 0.00 50 1021.3
20260503183907 79 144 5.2 10.4 0.00 0.00 0.00 49 1021.5
20260503183407 79 133 3.5 7.8 0.00 0.00 0.00 49 1021.6
20260503182906 79 111 2.6 7.0 0.00 0.00 0.00 50 1021.7
20260503182407 79 104 2.6 7.8 0.00 0.00 0.00 50 1021.8
20260503181406 79 79 2.6 7.8 0.00 0.00 0.00 52 1021.9
20260503180906 79 102 2.6 8.7 0.00 0.00 0.00 50 1021.9
20260503180406 79 138 2.6 8.7 0.00 0.00 0.00 52 1022.3
20260503175907 79 88 3.5 7.8 0.00 0.00 0.00 54 1022.1
20260503174906 79 92 2.6 7.8 0.00 0.00 0.00 52 1022.3
20260503174406 79 108 4.3 8.7 0.00 0.00 0.00 55 1022.2
20260503173906 78 139 4.3 7.8 0.00 0.00 0.00 54 1022.3
20260503173406 78 84 2.6 8.7 0.00 0.00 0.00 53 1022.3
20260503172906 79 130 4.3 11.3 0.00 0.00 0.00 56 1022.4
20260503172407 79 83 3.5 7.8 0.00 0.00 0.00 53 1022.4
20260503171906 79 120 3.5 7.8 0.00 0.00 0.00 54 1022.5
20260503171407 78 106 2.6 7.0 0.00 0.00 0.00 57 1022.5
20260503170907 78 123 4.3 8.7 0.00 0.00 0.00 54 1022.6
20260503170406 78 79 3.5 7.8 0.00 0.00 0.00 54 1022.6
20260503150406 77 25 1.7 7.8 0.00 0.00 0.00 65 1022.7
20260503131406 62 32 0.0 0.0 0.00 0.00 0.00 95 1022.0
20260503130906 61 32 0.0 0.0 0.00 0.00 0.00 95 1022.0
20260503130406 60 32 0.0 0.0 0.00 0.00 0.00 95 1021.7
20260503110406 55 34 0.0 0.0 0.00 0.00 0.00 93 1020.8
20260503080905 57 34 0.0 0.0 0.00 0.00 0.00 91 1021.1
20260503072905 57 34 0.0 0.0 0.00 0.00 0.00 91 1021.1
20260503072406 57 34 0.0 0.0 0.00 0.00 0.00 91 1021.2
20260503071905 58 34 0.0 0.0 0.00 0.00 0.00 91 1021.3
20260503070905 58 34 0.0 0.0 0.00 0.00 0.00 91 1021.4
20260503070405 58 34 0.0 0.0 0.00 0.00 0.00 91 1021.3